Lafayette, LA

1:32 PM CST on December 06, 2016 (GMT -0600)
Lafayette Regional

Weather History for KLFT - August, 2012

Change the Weather History Date:

Saturday, August 25, 2012

  Actual Average Record
Temperature  
Mean Temperature 80 °F 83 °F  
Max Temperature 87 °F 92 °F 100 °F (1914)
Min Temperature 72 °F 74 °F 62 °F (1917)
Cooling Degree Days 15 18  
Month to date cooling degree days 449 472  
Year to date cooling degree days 2344 2156  
Since 1 June cooling degree days 1498 1542  
Growing Degree Days 29 (Base 50)    
Moisture  
Dew Point 71 °F    
Average Humidity 82    
Maximum Humidity 93    
Minimum Humidity 70    
Precipitation  
Precipitation 0.35 in 0.14 in 2.06 in (1979)
Month to date precipitation 7.01 3.75  
Year to date precipitation 50.52 39.75  
Sea Level Pressure  
Sea Level Pressure 30.00 in    
Wind  
Wind Speed 2 mph (ESE)    
Max Wind Speed 12 mph    
Max Gust Speed 16 mph    
Visibility 8 miles    
Events Rain , Thunderstorm    
T = Trace of Precipitation, MM = Missing Value Source: NWS Daily Summary

Daily Weather History Graph

Daily Weather History Graph

Search for Another Location

Airport or City:

Trip Planner

Search our weather history database for the weather conditions in past years. The results will help you decide how hot, cold, wet, or windy it might be!

Date:

Astronomy

Aug. 25, 2012 Rise Set
Actual Time 6:41 AM CDT 7:38 PM CDT
Civil Twilight 6:16 AM CDT 8:02 PM CDT
Nautical Twilight 5:47 AM CDT 8:31 PM CDT
Astronomical Twilight 5:17 AM CDT 9:01 PM CDT
Moon 2:58 PM CDT (8/25) 12:38 AM CDT (8/25)
Length of Visible Light 13h 46m
Length of Day
12h 56m
Waxing Gibbous, 63% of the Moon is Illuminated
Aug 25
Waxing Gibbous
Aug 31
Full
Sep 8
Last Quarter
Sep 15
New
Sep 22
First Quarter

Hourly Weather History & Observations

Time (CDT) Temp. Heat Index Dew Point Humidity Pressure Visibility Wind Dir Wind Speed Gust Speed Precip Events Conditions
12:53 AM 72.0 °F - 70.0 °F 93% 29.98 in 10.0 mi Calm Calm - N/A   Clear
1:53 AM 72.0 °F - 70.0 °F 93% 29.97 in 10.0 mi Calm Calm - N/A   Clear
2:53 AM 72.0 °F - 70.0 °F 93% 29.97 in 10.0 mi Calm Calm - N/A   Clear
3:53 AM 72.0 °F - 70.0 °F 93% 29.96 in 10.0 mi Calm Calm - N/A   Clear
4:53 AM 72.0 °F - 70.0 °F 93% 29.96 in 10.0 mi Variable 3.5 mph - N/A   Clear
5:53 AM 73.0 °F - 70.0 °F 90% 29.98 in 10.0 mi Calm Calm - N/A   Clear
6:53 AM 72.0 °F - 70.0 °F 93% 30.00 in 10.0 mi East 3.5 mph - N/A   Clear
7:53 AM 73.9 °F - 71.1 °F 91% 30.01 in 10.0 mi Calm Calm - N/A   Overcast
8:53 AM 78.1 °F - 72.0 °F 81% 30.01 in 10.0 mi Variable 3.5 mph - N/A   Clear
9:53 AM 80.1 °F 84.5 °F 73.9 °F 81% 30.02 in 10.0 mi Variable 4.6 mph - N/A   Scattered Clouds
10:53 AM 82.9 °F 90.2 °F 75.0 °F 77% 30.03 in 10.0 mi South 5.8 mph - N/A   Partly Cloudy
11:53 AM 84.0 °F 91.2 °F 73.9 °F 72% 30.02 in 10.0 mi Variable 5.8 mph - N/A   Mostly Cloudy
12:00 PM 86.0 °F 95.1 °F 75.2 °F 70% 30.02 in 10.0 mi Variable 5.8 mph - N/A   Mostly Cloudy
12:53 PM 82.0 °F 87.4 °F 73.0 °F 74% 30.02 in 10.0 mi SW 9.2 mph - 0.00 in Rain Light Rain
1:05 PM 78.8 °F - 69.8 °F 74% 30.02 in 2.0 mi South 9.2 mph - 0.06 in Rain Heavy Rain
1:12 PM 80.6 °F 83.9 °F 69.8 °F 70% 30.01 in 1.5 mi Calm Calm - 0.08 in Rain Rain
1:15 PM 80.6 °F 83.9 °F 69.8 °F 70% 30.01 in 3.0 mi SSE 3.5 mph - 0.08 in Rain Light Rain
1:42 PM 75.2 °F - 71.6 °F 89% 30.02 in 1.5 mi ESE 5.8 mph - 0.19 in Rain Heavy Rain
1:53 PM 73.9 °F - 70.0 °F 87% 30.02 in 1.2 mi Variable 5.8 mph - 0.31 in Rain Heavy Rain
1:58 PM 73.4 °F - 71.6 °F 94% 30.02 in 2.0 mi Variable 3.5 mph - 0.02 in Rain Heavy Rain
2:03 PM 73.4 °F - 69.8 °F 88% 30.02 in 3.0 mi ENE 4.6 mph - 0.03 in Rain , Thunderstorm Rain
2:53 PM 79.0 °F - 72.0 °F 79% 30.00 in 10.0 mi NNE 3.5 mph - 0.04 in Thunderstorm Partly Cloudy
3:53 PM 82.0 °F 87.4 °F 73.0 °F 74% 29.98 in 10.0 mi Calm Calm - N/A   Clear
4:53 PM 84.0 °F 91.2 °F 73.9 °F 72% 29.97 in 10.0 mi Calm Calm - N/A   Clear
5:53 PM 84.9 °F 92.1 °F 73.9 °F 69% 29.97 in 10.0 mi Calm Calm - N/A   Clear
6:53 PM 79.0 °F - 70.0 °F 74% 29.99 in 10.0 mi ESE 5.8 mph - N/A   Partly Cloudy
7:09 PM 78.8 °F - 69.8 °F 74% 29.99 in 10.0 mi East 3.5 mph - N/A Thunderstorm Partly Cloudy
7:53 PM 77.0 °F - 70.0 °F 79% 30.00 in 10.0 mi Calm Calm - N/A Thunderstorm Mostly Cloudy
8:03 PM 75.2 °F - 69.8 °F 83% 30.01 in 10.0 mi Calm Calm - N/A   Mostly Cloudy
8:53 PM 75.0 °F - 70.0 °F 84% 30.01 in 10.0 mi ESE 3.5 mph - N/A   Partly Cloudy
9:53 PM 73.9 °F - 71.1 °F 91% 30.01 in 10.0 mi Calm Calm - N/A   Clear
10:53 PM 73.9 °F - 71.1 °F 91% 30.01 in 10.0 mi Calm Calm - N/A   Clear
11:53 PM 73.9 °F - 71.1 °F 91% 30.01 in 10.0 mi Calm Calm - N/A   Clear